Hourly Data Report for June 30, 2021

SANIRAJAK AIRPORT
NUNAVUT
Current Station Operator: NAVCAN

68°46'33.000" N
81°14'33.000" W
9.10 m
2402354
71293
YUX

Download Data

Hourly Data (June 2021)
Hourly Data Report for June 30, 2021
TIME
LST
Temp Definition
°C
Dew Point Definition
°C
Rel Hum Definition
%
Precip. Amount Definition
mm

Wind Dir Definition
10's deg

Wind Spd Definition
km/h
Visibility Definition
km
Stn Press Definition
kPa
Hmdx Definition


Wind Chill Definition


Weather Definition


00:00 5.4 3.3 86 0.0 26 21 16.1 101.31     LegendNANA
01:00 5.3 3.5 88 0.0 27 22 16.1 101.31     LegendNANA
02:00 4.9 3.2 89 0.0 24 22 16.1 101.30     LegendNANA
03:00 4.6 3.1 90 0.0 24 21 16.1 101.31     LegendNANA
04:00 4.1 2.8 91 0.0 22 18 16.1 101.27     LegendNANA
05:00 5.3 3.5 88 0.0 25 21 16.1 101.25     LegendNANA
06:00 4.6 3.3 91 0.0 24 21 16.1 101.25     LegendNANA
07:00 5.0 3.6 91 0.0 23 18 16.1 101.22     LegendNANA
08:00 5.3 3.5 88 0.0 22 17 16.1 101.16     LegendNANA
09:00 6.2 4.2 87 0.0 23 24 16.1 101.10     Rain
10:00 7.1 4.4 83 0.0 23 26 16.1 101.06     LegendNANA
11:00 7.3 4.1 80 0.0 22 28 16.1 100.94     LegendNANA
12:00 7.9 4.3 78 0.0 21 26 16.1 100.86     LegendNANA
13:00 6.7 3.7 81 0.0 21 30 16.1 100.77     LegendNANA
14:00 6.0 3.5 84 0.0 21 28 16.1 100.71     LegendNANA
15:00 6.3 3.5 82 0.0 20 28 16.1 100.65     LegendNANA
16:00 8.0 4.2 77 0.0 19 30 16.1 100.56     LegendNANA
17:00 7.9 5.1 82 0.0 21 22 16.1 100.56     LegendNANA
18:00 9.5 6.9 84 0.0 23 22 16.1 100.54     LegendNANA
19:00 11.7 8.4 80 0.0 26 24 16.1 100.54     LegendNANA
20:00 9.7 7.5 86 0.0 26 22 16.1 100.53     LegendNANA
21:00 9.1 7.4 89 0.0 28 30 16.1 100.55     LegendNANA
22:00 8.4 6.9 90 0.0 28 26 16.1 100.59     LegendNANA
23:00 6.8 5.8 93 0.0 29 18 16.1 100.66     LegendNANA

Notes on Data Quality.

Legend

  • E = Estimated
  • M = Missing
  • NA = Not Available*
  • [empty] = Indicates an unobserved value
Date modified: